Helicity
40 35 39 40 35 25 28 21 28 41 24 19 21 34 37 30 17 16 20 29 44 36 40 71 88 114 185 226 173 154 105 67 4 51 89 80 88 130 147 184 103 51 96 53 55 90 95
31 35 41 41 28 33 30 33 26 28 31 26 20 25 35 40 28 22 20 30 27 22 38 61 76 99 169 160 115 87 105 117 123 102 50 90 107 106 173 117 139 147 63 102 84 73 74
25 34 34 40 43 35 33 28 33 34 22 33 21 22 29 38 31 26 24 25 15 9 20 48 66 94 157 128 145 130 128 111 101 136 143 31 71 165 196 174 185 96 121 89 44 73 96
7 13 22 40 42 39 38 35 33 36 27 34 32 23 29 28 41 31 49 51 35 31 19 47 58 78 184 72 58 116 190 95 34 45 86 103 102 117 166 174 196 165 135 91 46 91 74
24 16 17 21 40 44 48 46 39 31 30 30 36 37 29 27 44 52 61 68 65 69 56 51 95 144 154 125 124 64 86 69 70 70 78 58 88 121 154 162 202 148 162 102 87 131 73
85 33 27 27 29 46 52 52 49 38 28 37 35 47 44 41 50 69 87 115 131 118 110 124 122 173 137 66 79 36 58 51 64 92 127 97 146 140 126 185 211 231 190 167 114 109 107
174 82 38 38 39 50 50 52 51 46 37 42 43 55 64 50 64 83 126 114 143 165 209 245 144 191 282 64 101 76 31 80 79 108 152 118 188 168 130 114 102 173 154 112 116 103 102
127 222 34 48 41 43 48 55 58 53 47 62 49 81 73 58 57 84 107 145 130 171 141 141 82 158 83 160 127 80 75 129 114 133 108 143 128 50 80 74 74 89 116 125 94 58 29
240 187 137 106 50 42 35 42 56 55 48 63 65 85 81 73 83 116 108 90 115 141 140 252 193 189 132 174 134 120 110 103 132 119 125 136 65 50 61 77 109 70 56 75 112 19 143
218 200 151 99 156 52 25 38 53 56 55 65 73 88 91 122 112 76 82 36 134 112 176 251 227 209 168 242 265 113 112 112 144 114 106 123 50 93 92 74 99 80 23 31 86 115 256
111 174 164 141 196 234 50 28 37 37 48 74 66 87 98 76 127 102 116 149 142 102 211 203 201 110 110 310 272 109 134 104 117 99 146 165 103 87 104 105 101 80 64 54 22 127 243
24 80 158 127 119 136 162 42 30 24 53 70 54 70 72 58 74 120 111 100 93 204 245 270 256 167 185 161 187 179 112 71 50 30 44 62 72 62 77 36 130 100 79 145 -2 128 207
43 59 59 109 103 215 317 67 36 26 57 67 54 63 74 45 67 170 114 133 184 242 203 185 156 174 124 166 113 111 83 65 137 144 118 57 -5 26 36 44 126 72 17 -45 -33 92 67
54 65 25 77 96 244 329 117 38 17 51 72 62 85 19 8 131 161 130 145 183 103 201 251 209 169 140 153 117 75 50 45 12 8 60 -26 -48 -35 -20 -50 -6 15 22 56 121 180 476
77 42 58 64 29 375 453 93 44 20 60 83 71 124 103 46 163 135 157 182 166 111 156 174 193 163 181 109 84 40 12 35 -4 -2 -47 -38 4 -76 -6 -39 3 -48 -105 -25 92 143 352
71 26 60 71 -15 442 541 133 38 28 77 85 178 176 111 110 200 162 155 197 154 78 179 141 126 122 116 125 118 23 -12 -26 14 -3 -42 -35 -27 -43 -31 14 -1 -8 -46 -52 90 189 196
68 35 14 118 -46 11 380 220 20 25 87 153 206 131 51 195 171 206 205 207 102 122 166 122 79 90 61 99 89 16 -22 -1 -12 -46 57 -5 90 -15 11 -14 -44 39 58 217 36 149 325
83 4 -9 186 -92 -4 294 209 145 22 96 176 176 114 110 108 133 209 185 181 187 99 102 72 31 3 73 71 50 -1 42 27 33 11 -8 28 48 -21 -7 -0 11 125 58 158 254 276 308
83 15 16 86 46 120 355 270 209 58 146 211 136 126 93 133 110 143 131 118 202 132 69 49 24 20 -1 30 89 65 71 46 -41 78 -9 3 12 89 88 97 198 56 114 169 239 204 230
64 2 46 64 135 127 354 598 105 77 103 168 145 116 120 141 139 106 129 119 197 126 57 19 -6 11 18 29 54 15 50 -1 -4 40 2 -18 82 67 156 110 120 99 109 164 149 195 188
51 16 33 51 64 72 472 406 70 60 79 187 161 96 90 81 81 60 77 57 61 46 27 45 4 -6 40 47 -2 40 21 13 26 37 -26 24 68 206 190 44 65 38 37 61 79 98 134
73 42 43 70 57 -15 311 421 406 32 120 164 109 115 108 80 41 58 34 41 53 111 -11 1 17 -12 22 36 11 37 6 8 6 -15 7 48 139 359 135 107 36 57 48 41 57 67 51
35 58 34 48 38 -56 291 274 349 38 149 131 154 121 136 60 42 69 30 33 24 58 51 -53 14 9 11 68 11 14 8 -23 -24 -1 29 9 105 204 116 105 138 119 61 42 39 58 57
46 71 40 49 97 -94 124 266 258 41 81 117 108 127 109 72 41 24 4 -8 77 85 79 -56 -27 9 38 50 44 60 131 119 84 54 60 57 50 81 107 72 62 66 66 55 57 63 35
36 56 69 46 103 -77 -0 245 281 248 30 111 104 86 60 50 36 17 24 39 42 6 1 -70 74 101 86 106 66 95 116 96 104 98 114 64 85 96 100 84 116 56 65 70 62 52 36
31 47 82 62 121 40 4 158 348 223 34 86 93 127 77 44 -1 49 49 30 -5 24 70 -8 37 119 114 111 90 64 65 83 69 76 89 87 119 133 131 98 75 71 44 76 110 92 83
19 51 78 68 103 51 59 113 382 284 24 77 51 111 76 30 1 14 3 -4 28 45 48 103 137 94 134 90 104 70 54 56 48 84 126 125 161 109 86 87 111 50 14 52 95 80 97
14 51 74 88 100 58 28 128 293 262 29 62 61 62 87 48 30 30 14 -14 91 45 35 34 85 30 159 189 158 139 42 37 40 45 122 179 140 110 136 48 7 53 86 51 41 68 56
12 38 83 91 65 69 62 189 244 360 46 35 61 82 106 62 43 28 21 -2 40 59 59 62 145 69 156 203 146 169 125 134 84 57 59 117 157 132 90 50 27 87 93 77 59 27 55
Wind_Speed
77 76 73 71 70 65 58 54 43 40 42 42 43 43 41 41 39 39 39 39 38 37 35 37 36 30 30 47 53 32 34 35 33 33 39 43 48 52 57 57 59 50 56 56 62 74 82
77 77 76 71 71 69 61 53 48 47 38 39 41 41 40 38 36 37 37 36 36 37 34 34 36 31 42 58 41 33 33 36 42 39 34 43 50 55 69 62 68 61 66 74 79 70 67
78 76 77 73 70 68 63 57 51 48 45 37 40 41 38 34 31 33 34 32 33 34 33 33 36 34 48 46 41 40 33 42 47 44 45 35 53 59 48 68 71 75 71 59 72 74 71
80 78 77 76 72 70 66 59 55 49 45 37 37 38 37 33 30 31 31 32 31 32 31 29 34 38 54 42 43 40 38 43 45 48 49 50 49 59 67 59 67 71 68 64 55 67 75
74 78 76 74 71 70 63 59 56 52 47 42 37 35 34 33 29 28 28 32 32 28 30 28 33 37 59 41 37 34 29 33 33 36 38 45 50 56 57 66 66 68 65 61 68 64 65
87 72 71 74 70 69 65 60 57 53 48 43 39 35 31 31 29 26 25 31 36 32 30 28 35 41 49 45 34 28 30 32 40 46 47 41 45 58 60 59 77 66 68 69 69 68 66
94 87 71 71 71 71 65 64 59 53 51 45 41 35 31 31 26 20 26 35 43 45 32 29 33 36 46 36 32 29 21 26 35 44 50 45 52 65 61 64 79 83 87 76 73 63 77
96 96 75 75 71 69 64 62 58 54 49 42 41 33 29 30 25 18 23 37 36 39 55 29 35 34 36 45 39 30 16 27 33 47 44 53 64 58 69 78 80 91 90 91 73 68 73
100 94 85 87 77 69 64 59 55 54 49 40 36 31 29 27 28 25 24 27 31 40 54 44 33 39 32 32 40 32 21 29 36 45 47 58 62 69 77 85 90 91 101 86 83 79 69
100 96 89 82 78 77 69 61 54 53 48 42 30 28 27 21 32 27 26 16 27 34 57 54 45 40 26 27 45 30 27 30 40 47 49 64 84 84 79 90 87 102 96 95 95 89 81
97 95 94 89 83 80 78 65 57 53 45 34 27 22 21 12 30 29 28 20 23 32 67 39 35 28 24 22 36 26 27 30 37 42 39 55 66 79 91 94 87 104 78 104 109 68 68
95 91 90 86 82 77 81 70 60 51 42 32 32 20 18 25 35 26 17 19 27 42 56 39 35 32 24 18 25 40 19 21 32 35 41 56 54 64 78 93 99 100 91 100 90 84 85
95 92 88 86 79 76 76 71 62 52 39 29 28 18 19 17 31 8 13 21 42 44 40 40 40 30 28 29 22 19 14 24 24 32 36 56 92 84 64 75 98 109 97 104 95 83 65
94 93 86 80 79 77 76 71 59 52 39 28 25 17 23 26 10 10 11 32 44 40 35 38 37 33 34 26 17 15 17 17 20 53 52 76 80 91 80 87 93 115 113 76 79 74 58
91 89 82 71 72 69 73 72 66 56 37 29 24 24 26 23 3 4 16 36 38 40 35 36 36 38 32 14 14 9 22 28 65 74 65 57 70 56 79 88 85 91 120 105 51 39 47
86 85 77 66 66 70 68 59 65 55 35 27 33 31 35 11 6 3 29 33 32 33 28 29 30 22 24 12 9 28 64 53 66 71 76 59 52 63 69 76 100 83 87 90 56 60 53
83 80 72 73 62 63 64 57 68 55 32 24 36 44 35 8 6 21 33 30 35 18 18 26 17 19 16 25 44 60 54 56 56 69 73 57 60 52 67 88 99 81 74 80 55 35 42
76 73 64 61 59 62 58 61 65 42 28 31 41 48 18 10 25 31 30 29 33 15 5 12 11 30 29 41 57 60 56 47 60 68 66 58 44 59 75 69 77 72 79 78 47 33 24
73 71 67 60 50 50 50 58 69 38 30 38 43 39 21 14 43 37 33 31 21 22 10 14 19 37 37 43 50 61 56 53 58 65 63 53 46 52 53 62 55 78 61 48 39 33 30
68 63 65 59 53 47 54 57 60 33 32 40 42 42 35 40 39 39 11 39 13 3 24 31 38 44 44 49 56 40 56 52 60 70 61 44 46 47 40 51 48 64 56 47 51 39 34
68 63 62 60 55 51 52 45 56 29 36 43 47 49 37 45 48 51 35 43 8 13 21 33 43 53 52 51 55 58 55 55 57 65 65 43 34 28 23 31 48 51 52 60 58 48 39
71 64 62 57 54 53 53 50 50 30 40 52 47 47 38 45 42 18 55 63 35 3 10 25 52 53 62 59 56 63 59 58 53 63 68 50 31 28 14 15 27 42 45 67 63 52 52
70 64 58 58 56 51 48 50 46 44 47 49 48 46 42 46 48 49 62 64 44 9 21 52 63 63 58 63 51 58 62 66 49 56 58 44 39 31 30 31 25 42 42 41 47 44 48
68 66 63 60 58 52 50 49 45 48 61 50 48 41 46 56 55 58 58 63 46 17 26 12 59 53 44 32 36 23 29 39 46 47 46 45 47 38 34 31 42 38 36 49 45 41 46
65 63 64 62 63 54 54 51 53 52 72 54 48 45 47 53 54 59 61 52 57 63 4 34 31 35 37 32 35 35 34 39 43 41 42 17 38 41 38 42 43 33 38 42 47 50 53
68 64 63 64 61 57 54 56 51 49 64 54 55 45 45 46 50 46 48 44 54 52 45 13 46 41 36 45 36 37 36 40 42 43 42 38 31 37 41 41 40 34 34 36 32 45 45
69 61 62 63 62 58 57 54 58 59 67 55 51 49 49 53 58 55 51 48 44 35 28 11 18 20 32 56 50 44 45 34 39 36 35 30 28 35 45 44 45 31 28 28 28 34 36
68 62 61 62 61 60 57 55 55 50 62 57 52 47 48 50 54 45 44 48 45 40 26 4 6 10 30 55 47 48 46 51 43 35 32 39 35 54 46 54 56 20 27 31 29 26 24
67 64 63 62 62 60 56 58 54 50 61 57 51 46 44 49 47 43 48 47 44 42 35 10 37 14 26 43 44 47 42 35 32 42 23 42 42 38 46 47 34 25 28 21 24 23 23
Wind_Direction
302 297 296 295 293 297 304 309 315 317 317 318 318 317 320 325 331 334 337 337 337 336 335 324 316 317 308 287 282 312 321 329 324 299 276 278 278 276 270 272 265 253 267 267 270 268 267
302 299 297 296 293 293 298 304 309 312 313 316 318 318 316 323 332 335 336 338 338 333 336 329 318 314 300 287 304 291 305 306 311 309 289 276 277 276 274 270 266 270 265 268 266 268 269
301 301 297 296 294 293 295 298 302 307 310 310 314 316 316 321 330 336 339 342 341 335 335 334 320 309 295 293 312 304 295 296 298 298 295 288 275 275 280 272 273 263 268 268 263 265 266
300 299 297 296 293 291 292 294 296 300 305 310 312 314 315 317 324 332 337 339 340 340 337 340 328 310 297 306 291 304 303 298 292 289 286 287 290 276 271 280 273 263 260 262 258 261 260
305 301 298 296 294 292 292 292 293 295 298 303 308 311 315 316 321 329 336 338 337 341 338 340 330 315 302 318 290 288 288 295 299 299 295 282 279 275 273 265 269 258 255 247 260 259 258
302 302 300 295 294 292 291 291 292 291 293 296 301 306 312 316 318 328 337 342 340 336 332 336 321 320 304 305 311 296 281 280 289 291 291 281 275 267 261 252 249 251 252 255 254 253 257
303 297 297 296 292 290 289 288 288 289 290 290 296 302 307 314 317 326 334 333 326 322 311 310 323 312 320 316 326 304 291 280 282 281 275 274 265 254 251 251 255 256 254 256 258 255 253
305 304 293 293 290 287 287 285 284 286 288 289 293 297 305 311 316 321 325 321 326 334 316 282 292 295 290 319 306 297 293 276 270 271 268 265 258 252 258 254 253 249 251 252 257 257 250
301 299 301 293 287 284 283 281 280 281 284 288 292 292 300 310 316 316 311 320 339 337 315 312 287 282 293 291 292 293 263 265 271 267 259 257 260 262 256 251 249 247 245 250 249 252 254
306 298 294 296 291 282 279 277 276 277 279 281 289 289 294 314 314 312 311 323 338 343 318 319 321 321 268 302 297 274 272 265 274 266 267 270 264 259 256 251 247 244 242 247 242 246 240
313 302 293 290 292 287 276 271 271 271 274 277 284 284 287 292 322 319 337 359 7 349 316 341 338 353 340 279 322 303 245 250 264 269 271 271 265 257 252 249 244 244 249 241 231 245 241
318 309 299 285 281 286 275 265 265 267 267 268 271 275 283 293 304 333 7 19 359 328 317 332 342 339 336 308 306 318 217 246 276 270 266 272 274 265 255 247 243 240 239 232 235 239 242
319 311 301 282 275 277 278 263 259 262 259 260 260 265 271 301 301 356 29 354 323 317 337 335 336 340 321 315 298 290 227 224 268 281 268 267 234 235 245 237 229 221 220 219 228 222 238
317 312 301 284 266 270 271 264 256 256 253 252 253 249 271 290 4 77 17 321 316 328 326 341 341 334 326 324 308 214 290 230 225 221 251 222 219 218 228 218 209 207 208 216 223 231 226
314 310 302 287 262 268 269 254 248 250 247 247 249 253 276 281 116 59 320 309 326 335 338 340 347 340 339 346 357 184 182 251 212 198 212 218 212 220 209 217 212 209 205 212 251 227 228
311 309 304 285 268 268 276 262 243 245 241 236 245 255 271 271 160 308 301 307 325 338 350 354 351 9 15 78 81 155 209 218 211 210 201 221 210 217 216 214 207 213 219 217 241 229 228
309 307 302 289 272 273 272 264 240 244 229 220 247 258 275 211 217 287 292 311 321 325 351 7 17 43 129 125 175 202 205 217 202 195 195 215 213 206 207 203 203 213 216 215 220 230 220
306 306 298 292 275 273 268 258 250 235 217 228 243 255 260 165 270 288 294 314 328 353 63 32 151 200 165 184 191 191 201 209 191 185 196 201 208 202 202 217 210 212 207 203 236 233 245
304 306 302 294 286 275 275 267 246 228 206 232 241 258 253 241 273 284 299 311 321 349 40 94 136 192 189 189 191 195 199 201 186 186 180 204 213 201 213 209 213 207 216 229 249 250 244
297 301 304 298 292 284 268 269 230 201 207 232 243 248 263 260 283 287 280 299 327 343 198 187 190 195 195 203 202 197 200 210 198 183 175 206 217 232 239 218 211 215 226 236 239 247 252
297 293 298 298 301 280 289 274 237 198 214 233 241 251 260 260 266 273 294 293 13 26 158 155 184 198 210 207 205 201 195 201 198 198 187 215 235 231 232 207 214 218 221 233 236 243 254
297 292 295 298 297 281 282 268 272 213 219 234 243 250 260 271 273 280 210 226 204 113 103 155 186 212 205 214 214 199 192 197 211 198 191 220 227 237 244 243 224 231 237 221 231 244 254
296 287 291 296 292 288 278 267 276 230 225 238 243 253 261 266 271 273 260 232 212 171 195 198 217 202 223 219 238 230 217 206 221 220 223 237 237 253 246 249 260 251 251 252 257 265 261
295 286 291 293 293 287 276 268 282 235 229 239 245 255 257 257 263 264 264 252 207 198 206 285 189 179 246 256 256 264 250 234 232 230 238 244 245 261 261 265 259 270 273 258 260 268 265
293 286 287 289 293 282 276 268 271 261 221 239 244 252 257 259 265 262 256 274 273 274 179 172 252 250 254 252 245 242 245 246 249 257 255 257 250 261 266 265 274 282 279 266 260 265 263
294 285 283 289 288 279 278 274 272 257 227 238 242 252 257 263 269 279 278 283 261 264 279 188 247 253 248 241 246 246 247 249 253 259 259 252 256 268 264 268 272 284 296 284 279 271 278
295 280 281 286 285 277 276 272 264 256 229 237 246 248 255 259 266 270 268 274 266 296 300 273 242 247 251 232 235 242 244 253 255 255 251 252 258 262 263 269 272 292 304 290 279 283 284
294 281 280 281 283 279 269 257 264 260 231 235 246 248 251 259 265 282 276 262 260 273 301 324 238 191 236 232 240 242 243 237 250 259 253 249 251 245 256 254 257 309 295 287 291 305 310
291 283 278 282 280 275 266 256 261 253 234 235 245 249 257 260 267 280 273 272 281 275 276 263 254 153 248 240 247 246 250 255 268 257 262 256 254 260 255 259 282 301 300 316 312 314 318